Date String (YYYY-MM-DD hh:mm:ss) UTC,Instrument flags,Ambient pressure (hPa),Sample flow (lpm),Bypass flow (lpm),Sample temperature (°C),Ambient temperature (°C),ASC tube jacket temperature (°C),LED temperature (°C),Box temperature (°C),Sample RH (%),Span deviation,Mass concentration (μg/m³),Mass concentration (μg/m³),Mass concentration (μg/m³)
DateTimeUTC,F1_M11,P_M11,Q1_M11,Q2_M11,T1_M11,T2_M11,T3_M11,T4_M11,T5_M11,U1_M11,ZSPAN_M11,X2_M11,X0_M11,X1_M11
2023-02-25 01:00:00,,0826.2,4.92,0.00,22.2,23.2,00.0,30.7,24.2,08.2,0000.0,0001.10,0003.61,0000.89
2023-02-25 01:01:00,,0826.2,4.97,0.00,22.3,22.9,00.0,30.8,24.2,08.1,0000.0,0001.11,0003.59,0000.92
2023-02-25 01:02:00,,0826.2,4.99,0.00,22.3,22.3,00.0,30.8,24.1,07.9,0000.0,0001.09,0003.49,0000.92
2023-02-25 01:03:00,,0826.2,4.99,0.00,22.3,21.8,00.0,30.9,24.0,07.9,0000.0,0001.11,0003.58,0000.91
2023-02-25 01:04:00,,0826.2,5.00,0.00,22.2,21.4,00.0,30.9,23.9,07.9,0000.0,0001.11,0003.49,0000.90
2023-02-25 01:05:00,,0826.2,4.98,0.00,22.2,21.2,00.0,30.9,23.7,07.8,0000.0,0001.07,0003.18,0000.88
2023-02-25 01:06:00,,0826.2,5.02,0.00,22.2,20.9,00.0,30.9,23.7,07.8,0000.0,0001.05,0003.11,0000.86
2023-02-25 01:07:00,,0826.2,4.99,0.00,22.1,20.7,00.0,30.9,23.6,08.0,0000.0,0001.07,0002.77,0000.86
2023-02-25 01:08:00,,0826.2,5.01,0.00,22.1,20.5,00.0,30.9,23.6,07.9,0000.0,0001.09,0002.45,0000.87
2023-02-25 01:09:00,,0826.2,5.00,0.00,22.1,20.3,00.0,30.9,23.5,07.8,0000.0,0001.15,0003.69,0000.87
2023-02-25 01:10:00,,0826.1,5.00,0.00,22.0,20.1,00.0,30.9,23.5,08.2,0000.0,0001.16,0003.92,0000.89
2023-02-25 01:11:00,,0826.1,5.00,0.00,22.0,20.0,00.0,30.8,23.4,07.9,0000.0,0001.14,0003.87,0000.86
2023-02-25 01:12:00,,0826.2,5.00,0.00,21.9,19.9,00.0,30.8,23.4,07.9,0000.0,0001.10,0004.23,0000.83
2023-02-25 01:13:00,,0826.2,4.99,0.00,21.9,19.8,00.0,30.8,23.4,08.1,0000.0,0001.10,0004.24,0000.82
2023-02-25 01:14:00,,0826.2,5.00,0.00,21.8,19.7,00.0,30.8,23.3,08.2,0000.0,0001.09,0004.17,0000.82
2023-02-25 01:15:00,,0826.2,5.02,0.00,21.8,19.7,00.0,30.7,23.3,08.2,0000.0,0001.05,0004.37,0000.81
2023-02-25 01:16:00,,0826.2,4.97,0.00,21.9,20.8,00.0,30.7,23.6,08.3,0000.0,0001.07,0004.70,0000.81
2023-02-25 01:17:00,,0826.2,5.01,0.00,22.0,22.0,00.0,30.7,23.9,08.3,0000.0,0001.10,0004.86,0000.82
2023-02-25 01:18:00,,0826.2,4.92,0.00,22.1,22.6,00.0,30.7,24.0,08.3,0000.0,0001.10,0004.81,0000.84
2023-02-25 01:19:00,,0826.2,5.02,0.00,22.1,22.1,00.0,30.8,24.0,08.5,0000.0,0001.11,0004.27,0000.85
2023-02-25 01:20:00,,0826.2,5.00,0.00,22.1,21.6,00.0,30.8,23.9,08.4,0000.0,0001.06,0003.15,0000.85
2023-02-25 01:21:00,,0826.2,5.02,0.00,22.1,21.3,00.0,30.8,23.7,08.4,0000.0,0001.04,0002.64,0000.83
2023-02-25 01:22:00,,0826.2,4.98,0.00,22.1,21.0,00.0,30.8,23.6,08.6,0000.0,0001.05,0002.68,0000.85
2023-02-25 01:23:00,,0826.2,5.01,0.00,22.0,20.7,00.0,30.8,23.6,08.5,0000.0,0001.12,0002.48,0000.92
2023-02-25 01:24:00,,0826.2,4.99,0.00,22.0,20.5,00.0,30.8,23.5,08.6,0000.0,0001.21,0002.52,0000.97
2023-02-25 01:25:00,,0826.2,5.00,0.00,22.0,20.3,00.0,30.8,23.5,08.7,0000.0,0001.24,0002.48,0001.01
2023-02-25 01:26:00,,0826.2,5.00,0.00,21.9,20.1,00.0,30.8,23.5,08.6,0000.0,0001.27,0002.48,0001.04
2023-02-25 01:27:00,,0826.2,5.01,0.00,21.9,20.0,00.0,30.8,23.4,08.6,0000.0,0001.27,0001.93,0001.06
2023-02-25 01:28:00,,0826.2,4.99,0.00,21.8,19.9,00.0,30.7,23.4,08.5,0000.0,0001.27,0001.82,0001.05
2023-02-25 01:29:00,,0826.2,4.99,0.00,21.8,19.8,00.0,30.7,23.3,08.4,0000.0,0001.26,0001.83,0001.04
2023-02-25 01:30:00,,0826.2,5.02,0.00,21.8,20.3,00.0,30.7,23.4,08.4,0000.0,0001.25,0001.86,0001.02
2023-02-25 01:31:00,,0826.2,4.98,0.00,21.9,21.6,00.0,30.7,23.7,08.3,0000.0,0001.24,0001.86,0001.01
2023-02-25 01:32:00,,0826.2,5.00,0.00,22.0,22.6,00.0,30.7,24.0,08.5,0000.0,0001.24,0001.85,0001.03
2023-02-25 01:33:00,,0826.2,4.99,0.00,22.1,23.0,00.0,30.7,24.1,08.3,0000.0,0001.19,0001.71,0001.01
2023-02-25 01:34:00,,0826.2,4.97,0.00,22.2,22.4,00.0,30.8,24.0,08.2,0000.0,0001.14,0001.65,0000.97
2023-02-25 01:35:00,,0826.2,4.97,0.00,22.2,21.8,00.0,30.8,23.9,08.2,0000.0,0001.09,0001.54,0000.95
2023-02-25 01:36:00,,0826.2,5.01,0.00,22.1,21.5,00.0,30.8,23.8,08.2,0000.0,0001.08,0001.50,0000.95
2023-02-25 01:37:00,,0826.2,5.00,0.00,22.1,21.1,00.0,30.8,23.7,08.2,0000.0,0001.09,0001.51,0000.96
2023-02-25 01:38:00,,0826.2,5.00,0.00,22.1,20.8,00.0,30.8,23.6,08.2,0000.0,0001.13,0001.58,0000.98
2023-02-25 01:39:00,,0826.2,5.00,0.00,22.0,20.5,00.0,30.8,23.6,08.0,0000.0,0001.15,0001.61,0001.00
2023-02-25 01:40:00,,0826.2,4.98,0.00,22.0,20.3,00.0,30.8,23.5,07.9,0000.0,0001.15,0001.57,0000.99
2023-02-25 01:41:00,,0826.2,5.00,0.00,22.0,20.1,00.0,30.8,23.4,07.9,0000.0,0001.12,0001.51,0000.97
2023-02-25 01:42:00,,0826.2,4.99,0.00,21.9,19.9,00.0,30.8,23.3,07.9,0000.0,0001.11,0001.48,0000.97
2023-02-25 01:43:00,,0826.2,5.01,0.00,21.9,19.8,00.0,30.8,23.3,07.9,0000.0,0001.10,0001.49,0000.96
2023-02-25 01:44:00,,0826.2,5.01,0.00,21.8,19.8,00.0,30.7,23.2,08.1,0000.0,0001.09,0001.49,0000.95
2023-02-25 01:45:00,,0826.2,5.01,0.00,21.8,19.7,00.0,30.7,23.2,08.1,0000.0,0001.07,0001.48,0000.92
2023-02-25 01:46:00,,0826.2,5.02,0.00,21.8,20.3,00.0,30.7,23.4,08.1,0000.0,0001.07,0002.06,0000.89
2023-02-25 01:47:00,,0826.2,4.99,0.00,21.9,21.6,00.0,30.6,23.7,08.0,0000.0,0001.04,0002.09,0000.84
2023-02-25 01:48:00,,0826.2,5.02,0.00,22.0,22.7,00.0,30.6,24.0,08.0,0000.0,0001.03,0002.16,0000.79
2023-02-25 01:49:00,,0826.2,5.03,0.00,22.2,23.1,00.0,30.7,24.2,07.9,0000.0,0000.98,0002.12,0000.74
2023-02-25 01:50:00,,0826.2,4.95,0.00,22.2,22.5,00.0,30.8,24.1,07.9,0000.0,0000.93,0002.05,0000.70
2023-02-25 01:51:00,,0826.2,5.00,0.00,22.2,21.9,00.0,30.8,23.9,07.9,0000.0,0000.92,0002.04,0000.68
2023-02-25 01:52:00,,0826.2,5.01,0.00,22.2,21.4,00.0,30.8,23.8,08.0,0000.0,0000.91,0002.06,0000.67
2023-02-25 01:53:00,,0826.2,5.00,0.00,22.1,21.1,00.0,30.8,23.7,07.9,0000.0,0000.92,0002.15,0000.68
2023-02-25 01:54:00,,0826.3,5.00,0.00,22.1,20.9,00.0,30.8,23.7,08.0,0000.0,0000.94,0002.19,0000.69
2023-02-25 01:55:00,,0826.2,4.99,0.00,22.1,20.7,00.0,30.8,23.6,08.1,0000.0,0000.98,0002.27,0000.71
2023-02-25 01:56:00,,0826.3,5.00,0.00,22.0,20.5,00.0,30.8,23.6,08.3,0000.0,0001.02,0002.67,0000.74
2023-02-25 01:57:00,,0826.4,4.99,0.00,22.0,20.3,00.0,30.8,23.5,08.4,0000.0,0001.06,0002.48,0000.79
2023-02-25 01:58:00,,0826.4,5.01,0.00,21.9,20.0,00.0,30.8,23.4,08.6,0000.0,0001.10,0002.48,0000.83
2023-02-25 01:59:00,,0826.4,4.99,0.00,21.8,19.8,00.0,30.8,23.2,08.6,0000.0,0001.12,0002.45,0000.85
